Location: Newark
(32.9167°N, 112.9667°W)
Time: 08:10:26
(UTC+00:00)

N. Korean satellite - Pass Details

Date: 31 October 2019
Orbit: 456 x 506 km, 97.2° (Epoch: 14 November)

Event Time Altitude Azimuth Distance (km) Brightness Sun altitude
Rises 01:13:11 0° 188° (S) 2,465 10.4 -7.0°
Reaches altitude 10° 01:15:22 10° 199° (SSW) 1,600 9.6 -7.5°
Maximum altitude 01:18:25 30° 263° (W) 859 8.8 -8.1°
Drops below altitude 10° 01:21:32 10° 326° (NW) 1,630 9.5 -8.8°
Sets 01:23:46 0° 337° (NNW) 2,520 10.4 -9.2°
